Wetterdaten: aktuell Mittwoch, 01.04.2020 17:10
Datum Zeit Temp. A. Feuchte A. Luftdruck Regen Wind Sonnenschein ET UV Solar Taupunkt Windchill Windben Empfang
01.04.2020 17:10 10,2 C 36 % 1019,3 hPa 0,0 l/m 5,2 km/h (1 Bft) 5 min 0,000 mm 0,8 UV-I 388 W/m -4,2 C 10,2 C 11,3 km/h (2 Bft) 100 %
01.04.2020 17:05 10,4 C 36 % 1019,3 hPa 0,0 l/m 6,0 km/h (2 Bft) 5 min 0,000 mm 0,8 UV-I 401 W/m -4,0 C 10,4 C 12,9 km/h (3 Bft) 100 %
01.04.2020 17:00 10,6 C 35 % 1019,3 hPa 0,0 l/m 4,4 km/h (1 Bft) 5 min 0,279 mm 0,9 UV-I 411 W/m -4,2 C 10,6 C 11,3 km/h (2 Bft) 100 %
01.04.2020 16:55 10,2 C 36 % 1019,4 hPa 0,0 l/m 6,2 km/h (2 Bft) 5 min 0,000 mm 0,9 UV-I 427 W/m -4,2 C 10,2 C 14,5 km/h (3 Bft) 99 %
01.04.2020 16:50 10,1 C 35 % 1019,6 hPa 0,0 l/m 9,1 km/h (2 Bft) 5 min 0,000 mm 0,9 UV-I 439 W/m -4,6 C 8,2 C 17,7 km/h (3 Bft) 100 %
01.04.2020 16:45 10,7 C 34 % 1019,6 hPa 0,0 l/m 5,4 km/h (1 Bft) 5 min 0,000 mm 0,9 UV-I 452 W/m -4,5 C 10,7 C 11,3 km/h (2 Bft) 100 %
01.04.2020 16:40 10,7 C 35 % 1019,6 hPa 0,0 l/m 2,8 km/h (1 Bft) 5 min 0,000 mm 0,9 UV-I 462 W/m -4,1 C 10,7 C 11,3 km/h (2 Bft) 100 %
01.04.2020 16:35 10,3 C 35 % 1019,7 hPa 0,0 l/m 7,2 km/h (2 Bft) 5 min 0,000 mm 1,0 UV-I 473 W/m -4,5 C 9,7 C 14,5 km/h (3 Bft) 100 %
01.04.2020 16:30 10,3 C 36 % 1019,7 hPa 0,0 l/m 7,4 km/h (2 Bft) 5 min 0,000 mm 1,0 UV-I 483 W/m -4,1 C 9,6 C 11,3 km/h (2 Bft) 100 %
01.04.2020 16:25 10,6 C 35 % 1019,8 hPa 0,0 l/m 5,4 km/h (1 Bft) 5 min 0,000 mm 1,1 UV-I 494 W/m -4,2 C 10,6 C 11,3 km/h (2 Bft) 99 %
01.04.2020 16:20 10,6 C 36 % 1019,8 hPa 0,0 l/m 5,2 km/h (1 Bft) 5 min 0,000 mm 1,3 UV-I 504 W/m -3,8 C 10,6 C 11,3 km/h (2 Bft) 100 %
01.04.2020 16:15 10,7 C 35 % 1019,9 hPa 0,0 l/m 4,0 km/h (1 Bft) 5 min 0,000 mm 1,3 UV-I 515 W/m -4,1 C 10,7 C 11,3 km/h (2 Bft) 99 %
01.04.2020 16:10 10,2 C 35 % 1020,0 hPa 0,0 l/m 3,3 km/h (1 Bft) 5 min 0,000 mm 1,4 UV-I 529 W/m -4,6 C 10,2 C 9,7 km/h (2 Bft) 99 %
01.04.2020 16:05 10,4 C 34 % 1020,0 hPa 0,0 l/m 3,9 km/h (1 Bft) 5 min 0,000 mm 1,5 UV-I 538 W/m -4,8 C 10,4 C 11,3 km/h (2 Bft) 100 %
01.04.2020 16:00 10,4 C 34 % 1020,0 hPa 0,0 l/m 4,6 km/h (1 Bft) 5 min 0,305 mm 1,5 UV-I 550 W/m -4,8 C 10,4 C 9,7 km/h (2 Bft) 99 %
01.04.2020 15:55 10,3 C 35 % 1020,1 hPa 0,0 l/m 6,1 km/h (2 Bft) 5 min 0,000 mm 1,6 UV-I 561 W/m -4,5 C 10,3 C 9,7 km/h (2 Bft) 99 %
01.04.2020 15:50 10,1 C 34 % 1020,2 hPa 0,0 l/m 7,7 km/h (2 Bft) 5 min 0,000 mm 1,7 UV-I 570 W/m -5,0 C 9,2 C 14,5 km/h (3 Bft) 99 %
01.04.2020 15:45 10,6 C 35 % 1020,2 hPa 0,0 l/m 6,3 km/h (2 Bft) 5 min 0,000 mm 1,7 UV-I 577 W/m -4,2 C 10,6 C 14,5 km/h (3 Bft) 100 %
01.04.2020 15:40 10,5 C 35 % 1020,3 hPa 0,0 l/m 4,2 km/h (1 Bft) 5 min 0,000 mm 1,8 UV-I 585 W/m -4,3 C 10,5 C 11,3 km/h (2 Bft) 100 %
01.04.2020 15:35 10,3 C 35 % 1020,4 hPa 0,0 l/m 2,6 km/h (1 Bft) 5 min 0,000 mm 1,8 UV-I 591 W/m -4,5 C 10,3 C 9,7 km/h (2 Bft) 100 %
01.04.2020 15:30 10,1 C 34 % 1020,4 hPa 0,0 l/m 2,0 km/h (1 Bft) 5 min 0,000 mm 1,9 UV-I 578 W/m -5,0 C 10,1 C 9,7 km/h (2 Bft) 100 %
01.04.2020 15:25 10,2 C 34 % 1020,5 hPa 0,0 l/m 6,9 km/h (2 Bft) 5 min 0,000 mm 2,0 UV-I 540 W/m -4,9 C 9,8 C 14,5 km/h (3 Bft) 100 %
01.04.2020 15:20 10,0 C 37 % 1020,5 hPa 0,0 l/m 2,6 km/h (1 Bft) 5 min 0,000 mm 2,0 UV-I 503 W/m -4,0 C 10,0 C 11,3 km/h (2 Bft) 100 %
01.04.2020 15:15 10,0 C 34 % 1020,6 hPa 0,0 l/m 4,1 km/h (1 Bft) 5 min 0,000 mm 2,1 UV-I 496 W/m -5,1 C 10,0 C 9,7 km/h (2 Bft) 100 %
01.04.2020 15:10 10,2 C 35 % 1020,7 hPa 0,0 l/m 4,2 km/h (1 Bft) 5 min 0,000 mm 2,1 UV-I 526 W/m -4,6 C 10,2 C 12,9 km/h (3 Bft) 100 %
01.04.2020 15:05 10,1 C 34 % 1020,7 hPa 0,0 l/m 1,6 km/h (1 Bft) 5 min 0,000 mm 2,2 UV-I 591 W/m -5,0 C 10,1 C 9,7 km/h (2 Bft) 100 %
01.04.2020 15:00 10,1 C 34 % 1020,8 hPa 0,0 l/m 4,9 km/h (1 Bft) 5 min 0,305 mm 2,2 UV-I 638 W/m -5,0 C 10,1 C 16,1 km/h (3 Bft) 100 %
01.04.2020 14:55 11,0 C 34 % 1020,8 hPa 0,0 l/m 1,8 km/h (1 Bft) 5 min 0,000 mm 2,3 UV-I 652 W/m -4,2 C 11,0 C 14,5 km/h (3 Bft) 100 %
01.04.2020 14:50 9,7 C 33 % 1020,9 hPa 0,0 l/m 1,7 km/h (1 Bft) 5 min 0,000 mm 2,1 UV-I 657 W/m -5,8 C 9,7 C 4,8 km/h (1 Bft) 100 %
01.04.2020 14:45 9,7 C 33 % 1021,0 hPa 0,0 l/m 2,7 km/h (1 Bft) 5 min 0,000 mm 1,9 UV-I 657 W/m -5,8 C 9,7 C 8,0 km/h (2 Bft) 100 %
01.04.2020 14:40 9,9 C 35 % 1021,0 hPa 0,0 l/m 1,2 km/h (1 Bft) 5 min 0,000 mm 2,3 UV-I 668 W/m -4,8 C 9,9 C 9,7 km/h (2 Bft) 100 %
01.04.2020 14:35 9,1 C 36 % 1021,1 hPa 0,0 l/m 3,7 km/h (1 Bft) 5 min 0,000 mm 2,5 UV-I 661 W/m -5,2 C 9,1 C 9,7 km/h (2 Bft) 100 %
01.04.2020 14:30 9,5 C 35 % 1021,2 hPa 0,0 l/m 3,7 km/h (1 Bft) 5 min 0,000 mm 2,5 UV-I 638 W/m -5,2 C 9,5 C 11,3 km/h (2 Bft) 100 %
01.04.2020 14:25 9,2 C 37 % 1021,3 hPa 0,0 l/m 1,6 km/h (1 Bft) 5 min 0,000 mm 2,6 UV-I 617 W/m -4,7 C 9,2 C 6,4 km/h (2 Bft) 99 %
01.04.2020 14:20 9,3 C 35 % 1021,3 hPa 0,0 l/m 2,1 km/h (1 Bft) 5 min 0,000 mm 2,6 UV-I 589 W/m -5,4 C 9,3 C 6,4 km/h (2 Bft) 100 %
01.04.2020 14:15 8,9 C 37 % 1021,4 hPa 0,0 l/m 3,4 km/h (1 Bft) 5 min 0,000 mm 2,7 UV-I 566 W/m -5,0 C 8,9 C 8,0 km/h (2 Bft) 100 %
01.04.2020 14:10 8,9 C 36 % 1021,5 hPa 0,0 l/m 6,4 km/h (2 Bft) 5 min 0,000 mm 2,7 UV-I 554 W/m -5,3 C 8,9 C 14,5 km/h (3 Bft) 100 %
01.04.2020 14:05 9,0 C 37 % 1021,5 hPa 0,0 l/m 2,6 km/h (1 Bft) 5 min 0,000 mm 2,7 UV-I 547 W/m -4,9 C 9,0 C 9,7 km/h (2 Bft) 100 %
01.04.2020 14:00 9,1 C 35 % 1021,5 hPa 0,0 l/m 1,1 km/h (1 Bft) 5 min 0,305 mm 2,7 UV-I 561 W/m -5,5 C 9,1 C 6,4 km/h (2 Bft) 100 %
01.04.2020 13:55 9,2 C 37 % 1021,6 hPa 0,0 l/m 2,7 km/h (1 Bft) 5 min 0,000 mm 2,8 UV-I 584 W/m -4,7 C 9,2 C 6,4 km/h (2 Bft) 100 %
01.04.2020 13:50 8,1 C 38 % 1021,7 hPa 0,0 l/m 2,1 km/h (1 Bft) 5 min 0,000 mm 2,8 UV-I 619 W/m -5,3 C 8,1 C 6,4 km/h (2 Bft) 100 %
01.04.2020 13:45 8,1 C 38 % 1021,8 hPa 0,0 l/m 3,3 km/h (1 Bft) 5 min 0,000 mm 2,8 UV-I 652 W/m -5,3 C 8,1 C 9,7 km/h (2 Bft) 100 %
01.04.2020 13:40 8,4 C 38 % 1021,9 hPa 0,0 l/m 2,3 km/h (1 Bft) 5 min 0,000 mm 2,8 UV-I 686 W/m -5,1 C 8,4 C 6,4 km/h (2 Bft) 100 %
01.04.2020 13:35 9,0 C 35 % 1021,9 hPa 0,0 l/m 4,0 km/h (1 Bft) 5 min 0,000 mm 2,8 UV-I 700 W/m -5,6 C 9,0 C 11,3 km/h (2 Bft) 100 %
01.04.2020 13:30 9,1 C 37 % 1022,0 hPa 0,0 l/m 2,5 km/h (1 Bft) 5 min 0,000 mm 2,8 UV-I 707 W/m -4,8 C 9,1 C 8,0 km/h (2 Bft) 100 %
01.04.2020 13:25 8,6 C 36 % 1022,0 hPa 0,0 l/m 2,1 km/h (1 Bft) 5 min 0,000 mm 2,9 UV-I 703 W/m -5,6 C 8,6 C 9,7 km/h (2 Bft) 100 %
01.04.2020 13:20 8,3 C 39 % 1022,2 hPa 0,0 l/m 1,9 km/h (1 Bft) 5 min 0,000 mm 2,9 UV-I 705 W/m -4,8 C 8,3 C 11,3 km/h (2 Bft) 99 %
01.04.2020 13:15 8,0 C 38 % 1022,3 hPa 0,0 l/m 3,6 km/h (1 Bft) 5 min 0,000 mm 2,9 UV-I 707 W/m -5,4 C 8,0 C 12,9 km/h (3 Bft) 100 %
01.04.2020 13:10 7,9 C 38 % 1022,4 hPa 0,0 l/m 2,5 km/h (1 Bft) 5 min 0,000 mm 2,9 UV-I 705 W/m -5,5 C 7,9 C 8,0 km/h (2 Bft) 100 %
01.04.2020 13:05 8,1 C 38 % 1022,5 hPa 0,0 l/m 3,1 km/h (1 Bft) 5 min 0,000 mm 2,9 UV-I 705 W/m -5,3 C 8,1 C 8,0 km/h (2 Bft) 99 %
01.04.2020 13:00 7,6 C 38 % 1022,6 hPa 0,0 l/m 2,3 km/h (1 Bft) 5 min 0,304 mm 2,8 UV-I 701 W/m -5,8 C 7,6 C 6,4 km/h (2 Bft) 100 %
01.04.2020 12:55 8,3 C 38 % 1022,7 hPa 0,0 l/m 2,8 km/h (1 Bft) 5 min 0,000 mm 2,8 UV-I 698 W/m -5,2 C 8,3 C 9,7 km/h (2 Bft) 100 %
01.04.2020 12:50 8,2 C 39 % 1022,8 hPa 0,0 l/m 2,1 km/h (1 Bft) 5 min 0,000 mm 2,8 UV-I 696 W/m -4,9 C 8,2 C 6,4 km/h (2 Bft) 100 %
01.04.2020 12:45 7,4 C 41 % 1022,9 hPa 0,0 l/m 2,2 km/h (1 Bft) 5 min 0,000 mm 2,8 UV-I 696 W/m -5,0 C 7,4 C 4,8 km/h (1 Bft) 100 %
01.04.2020 12:40 7,2 C 41 % 1023,0 hPa 0,0 l/m 1,9 km/h (1 Bft) 5 min 0,000 mm 2,8 UV-I 693 W/m -5,2 C 7,2 C 9,7 km/h (2 Bft) 100 %
01.04.2020 12:35 7,6 C 42 % 1023,0 hPa 0,0 l/m 0,9 km/h (0 Bft) 5 min 0,000 mm 2,8 UV-I 691 W/m -4,5 C 7,6 C 6,4 km/h (2 Bft) 99 %
01.04.2020 12:30 6,6 C 44 % 1023,0 hPa 0,0 l/m 1,8 km/h (1 Bft) 5 min 0,000 mm 2,7 UV-I 682 W/m -4,8 C 6,6 C 4,8 km/h (1 Bft) 100 %
01.04.2020 12:25 6,7 C 42 % 1023,3 hPa 0,0 l/m 4,3 km/h (1 Bft) 5 min 0,000 mm 2,7 UV-I 680 W/m -5,3 C 6,7 C 11,3 km/h (2 Bft) 100 %
01.04.2020 12:20 6,7 C 44 % 1023,3 hPa 0,0 l/m 3,0 km/h (1 Bft) 5 min 0,000 mm 2,7 UV-I 677 W/m -4,7 C 6,7 C 9,7 km/h (2 Bft) 100 %
01.04.2020 12:15 6,8 C 45 % 1023,4 hPa 0,0 l/m 4,0 km/h (1 Bft) 5 min 0,000 mm 2,7 UV-I 668 W/m -4,3 C 6,8 C 9,7 km/h (2 Bft) 100 %
01.04.2020 12:10 6,2 C 46 % 1023,4 hPa 0,0 l/m 0,2 km/h (0 Bft) 5 min 0,000 mm 2,6 UV-I 668 W/m -4,5 C 6,2 C 3,2 km/h (1 Bft) 100 %
01.04.2020 12:05 6,2 C 45 % 1023,5 hPa 0,0 l/m 1,2 km/h (1 Bft) 5 min 0,000 mm 2,6 UV-I 659 W/m -4,8 C 6,2 C 6,4 km/h (2 Bft) 100 %
01.04.2020 12:00 6,4 C 45 % 1023,6 hPa 0,0 l/m 0,4 km/h (0 Bft) 5 min 0,254 mm 2,5 UV-I 657 W/m -4,6 C 6,4 C 4,8 km/h (1 Bft) 100 %
01.04.2020 11:55 6,2 C 46 % 1023,7 hPa 0,0 l/m 3,1 km/h (1 Bft) 5 min 0,000 mm 2,5 UV-I 649 W/m -4,5 C 6,2 C 9,7 km/h (2 Bft) 100 %
01.04.2020 11:50 5,5 C 47 % 1023,8 hPa 0,0 l/m 1,3 km/h (1 Bft) 5 min 0,000 mm 2,4 UV-I 645 W/m -4,9 C 5,5 C 6,4 km/h (2 Bft) 99 %
01.04.2020 11:45 6,3 C 46 % 1023,9 hPa 0,0 l/m 2,3 km/h (1 Bft) 5 min 0,000 mm 2,4 UV-I 640 W/m -4,5 C 6,3 C 6,4 km/h (2 Bft) 100 %
01.04.2020 11:40 5,9 C 47 % 1023,9 hPa 0,0 l/m 2,2 km/h (1 Bft) 5 min 0,000 mm 2,3 UV-I 633 W/m -4,5 C 5,9 C 8,0 km/h (2 Bft) 100 %
01.04.2020 11:35 6,1 C 48 % 1024,0 hPa 0,0 l/m 0,9 km/h (0 Bft) 5 min 0,000 mm 2,2 UV-I 624 W/m -4,1 C 6,1 C 6,4 km/h (2 Bft) 100 %
01.04.2020 11:30 5,8 C 47 % 1024,1 hPa 0,0 l/m 1,7 km/h (1 Bft) 5 min 0,000 mm 2,2 UV-I 617 W/m -4,6 C 5,8 C 6,4 km/h (2 Bft) 100 %
01.04.2020 11:25 5,7 C 48 % 1024,2 hPa 0,0 l/m 1,6 km/h (1 Bft) 5 min 0,000 mm 2,1 UV-I 610 W/m -4,4 C 5,7 C 8,0 km/h (2 Bft) 100 %
01.04.2020 11:20 5,3 C 48 % 1024,2 hPa 0,0 l/m 3,7 km/h (1 Bft) 5 min 0,000 mm 2,1 UV-I 603 W/m -4,8 C 5,3 C 9,7 km/h (2 Bft) 100 %
01.04.2020 11:15 5,2 C 48 % 1024,3 hPa 0,0 l/m 5,6 km/h (1 Bft) 5 min 0,000 mm 2,0 UV-I 596 W/m -4,9 C 5,2 C 14,5 km/h (3 Bft) 100 %
01.04.2020 11:10 5,2 C 49 % 1024,4 hPa 0,0 l/m 1,9 km/h (1 Bft) 5 min 0,000 mm 2,0 UV-I 582 W/m -4,6 C 5,2 C 8,0 km/h (2 Bft) 99 %
01.04.2020 11:05 5,1 C 50 % 1024,4 hPa 0,0 l/m 1,7 km/h (1 Bft) 5 min 0,000 mm 1,9 UV-I 555 W/m -4,4 C 5,1 C 6,4 km/h (2 Bft) 99 %
01.04.2020 11:00 4,6 C 50 % 1024,6 hPa 0,0 l/m 3,1 km/h (1 Bft) 5 min 0,178 mm 1,9 UV-I 522 W/m -4,9 C 4,6 C 8,0 km/h (2 Bft) 100 %
01.04.2020 10:55 4,6 C 49 % 1024,6 hPa 0,0 l/m 5,0 km/h (1 Bft) 5 min 0,000 mm 1,8 UV-I 489 W/m -5,2 C 4,6 C 8,0 km/h (2 Bft) 100 %
01.04.2020 10:50 4,6 C 50 % 1024,6 hPa 0,0 l/m 0,7 km/h (0 Bft) 5 min 0,000 mm 1,7 UV-I 457 W/m -4,9 C 4,6 C 4,8 km/h (1 Bft) 99 %
01.04.2020 10:45 4,3 C 51 % 1024,7 hPa 0,0 l/m 1,3 km/h (1 Bft) 5 min 0,000 mm 1,7 UV-I 438 W/m -4,9 C 4,3 C 6,4 km/h (2 Bft) 100 %
01.04.2020 10:40 4,1 C 53 % 1024,8 hPa 0,0 l/m 0,0 km/h (0 Bft) 5 min 0,000 mm 1,6 UV-I 420 W/m -4,6 C 4,1 C 1,6 km/h (1 Bft) 100 %
01.04.2020 10:35 4,2 C 52 % 1024,8 hPa 0,0 l/m 1,4 km/h (1 Bft) 5 min 0,000 mm 1,5 UV-I 413 W/m -4,8 C 4,2 C 8,0 km/h (2 Bft) 100 %
01.04.2020 10:30 4,1 C 56 % 1024,9 hPa 0,0 l/m 0,7 km/h (0 Bft) 5 min 0,000 mm 1,5 UV-I 413 W/m -3,9 C 4,1 C 4,8 km/h (1 Bft) 100 %
01.04.2020 10:25 3,4 C 56 % 1024,9 hPa 0,0 l/m 1,0 km/h (0 Bft) 5 min 0,000 mm 1,4 UV-I 415 W/m -4,5 C 3,4 C 4,8 km/h (1 Bft) 100 %
01.04.2020 10:20 3,3 C 57 % 1024,9 hPa 0,0 l/m 0,5 km/h (0 Bft) 5 min 0,000 mm 1,4 UV-I 397 W/m -4,4 C 3,3 C 4,8 km/h (1 Bft) 100 %
01.04.2020 10:15 2,9 C 59 % 1025,0 hPa 0,0 l/m 0,0 km/h (0 Bft) 5 min 0,000 mm 1,3 UV-I 378 W/m -4,3 C 2,9 C 1,6 km/h (1 Bft) 100 %
01.04.2020 10:10 2,5 C 59 % 1025,1 hPa 0,0 l/m 0,6 km/h (0 Bft) 5 min 0,000 mm 1,3 UV-I 415 W/m -4,7 C 2,5 C 3,2 km/h (1 Bft) 99 %
01.04.2020 10:05 2,2 C 60 % 1025,2 hPa 0,0 l/m 0,1 km/h (0 Bft) 5 min 0,000 mm 1,2 UV-I 417 W/m -4,7 C 2,2 C 1,6 km/h (1 Bft) 99 %
01.04.2020 10:00 1,8 C 61 % 1025,2 hPa 0,0 l/m 0,2 km/h (0 Bft) 5 min 0,102 mm 1,2 UV-I 383 W/m -4,9 C 1,8 C 1,6 km/h (1 Bft) 100 %
01.04.2020 09:55 1,8 C 65 % 1025,2 hPa 0,0 l/m 0,0 km/h (0 Bft) 5 min 0,000 mm 1,1 UV-I 346 W/m -4,1 C 1,8 C 0,0 km/h (0 Bft) 100 %
01.04.2020 09:50 1,3 C 67 % 1025,3 hPa 0,0 l/m 0,0 km/h (0 Bft) 5 min 0,000 mm 1,0 UV-I 327 W/m -4,1 C 1,3 C 0,0 km/h (0 Bft) 100 %
01.04.2020 09:45 0,9 C 70 % 1025,3 hPa 0,0 l/m 0,0 km/h (0 Bft) 5 min 0,000 mm 1,0 UV-I 325 W/m -3,9 C 0,9 C 0,0 km/h (0 Bft) 100 %
01.04.2020 09:40 0,3 C 69 % 1025,3 hPa 0,0 l/m 0,0 km/h (0 Bft) 5 min 0,000 mm 0,9 UV-I 334 W/m -4,7 C 0,3 C 0,0 km/h (0 Bft) 100 %
01.04.2020 09:35 0,3 C 71 % 1025,3 hPa 0,0 l/m 0,0 km/h (0 Bft) 5 min 0,000 mm 0,8 UV-I 345 W/m -4,3 C 0,3 C 0,0 km/h (0 Bft) 100 %
01.04.2020 09:30 0,3 C 71 % 1025,3 hPa 0,0 l/m 0,0 km/h (0 Bft) 5 min 0,000 mm 0,8 UV-I 352 W/m -4,3 C 0,3 C 0,0 km/h (0 Bft) 99 %
01.04.2020 09:25 0,2 C 74 % 1025,3 hPa 0,0 l/m 0,0 km/h (0 Bft) 5 min 0,000 mm 0,8 UV-I 339 W/m -3,9 C 0,2 C 1,6 km/h (1 Bft) 100 %
01.04.2020 09:20 -0,5 C 75 % 1025,3 hPa 0,0 l/m 0,0 km/h (0 Bft) 5 min 0,000 mm 0,7 UV-I 325 W/m -4,4 C -0,5 C 0,0 km/h (0 Bft) 100 %
01.04.2020 09:15 -1,1 C 77 % 1025,4 hPa 0,0 l/m 0,0 km/h (0 Bft) 5 min 0,000 mm 0,7 UV-I 311 W/m -4,6 C -1,1 C 0,0 km/h (0 Bft) 100 %
01.04.2020 09:10 -1,3 C 77 % 1025,5 hPa 0,0 l/m 0,0 km/h (0 Bft) 5 min 0,000 mm 0,6 UV-I 299 W/m -4,8 C -1,3 C 0,0 km/h (0 Bft) 100 %
01.04.2020 09:05 -1,9 C 78 % 1025,5 hPa 0,0 l/m 0,0 km/h (0 Bft) 5 min 0,000 mm 0,6 UV-I 283 W/m -5,2 C -1,9 C 1,6 km/h (1 Bft) 100 %
01.04.2020 09:00 -2,3 C 79 % 1025,6 hPa 0,0 l/m 0,0 km/h (0 Bft) 5 min 0,051 mm 0,5 UV-I 271 W/m -5,4 C -2,3 C 0,0 km/h (0 Bft) 99 %
01.04.2020 08:55 -2,7 C 80 % 1025,6 hPa 0,0 l/m 0,0 km/h (0 Bft) 5 min 0,000 mm 0,5 UV-I 258 W/m -5,7 C -2,7 C 1,6 km/h (1 Bft) 100 %
01.04.2020 08:50 -2,9 C 82 % 1025,7 hPa 0,0 l/m 0,0 km/h (0 Bft) 5 min 0,000 mm 0,0 UV-I 241 W/m -5,5 C -2,9 C 1,6 km/h (1 Bft) 100 %
01.04.2020 08:45 -3,3 C 83 % 1025,7 hPa 0,0 l/m 0,0 km/h (0 Bft) 5 min 0,000 mm 0,0 UV-I 227 W/m -5,8 C -3,3 C 0,0 km/h (0 Bft) 100 %
01.04.2020 08:40 -3,7 C 84 % 1025,7 hPa 0,0 l/m 0,0 km/h (0 Bft) 5 min 0,000 mm 0,0 UV-I 216 W/m -6,0 C -3,7 C 0,0 km/h (0 Bft) 100 %
01.04.2020 08:35 -3,8 C 84 % 1025,7 hPa 0,0 l/m 0,0 km/h (0 Bft) 5 min 0,000 mm 0,0 UV-I 202 W/m -6,1 C -3,8 C 0,0 km/h (0 Bft) 99 %
01.04.2020 08:30 -3,8 C 85 % 1025,8 hPa 0,0 l/m 0,0 km/h (0 Bft) 5 min 0,000 mm 0,0 UV-I 192 W/m -5,9 C -3,8 C 0,0 km/h (0 Bft) 99 %
01.04.2020 08:25 -4,1 C 86 % 1025,8 hPa 0,0 l/m 0,0 km/h (0 Bft) 5 min 0,000 mm 0,0 UV-I 183 W/m -6,1 C -4,1 C 0,0 km/h (0 Bft) 100 %
01.04.2020 08:20 -4,3 C 86 % 1025,8 hPa 0,0 l/m 0,0 km/h (0 Bft) 5 min 0,000 mm 0,0 UV-I 178 W/m -6,3 C -4,3 C 0,0 km/h (0 Bft) 100 %
01.04.2020 08:15 -4,6 C 87 % 1025,8 hPa 0,0 l/m 0,0 km/h (0 Bft) 5 min 0,000 mm 0,0 UV-I 171 W/m -6,4 C -4,6 C 0,0 km/h (0 Bft) 100 %
01.04.2020 08:10 -4,9 C 87 % 1025,7 hPa 0,0 l/m 0,0 km/h (0 Bft) 5 min 0,000 mm 0,0 UV-I 169 W/m -6,7 C -4,9 C 0,0 km/h (0 Bft) 100 %
01.04.2020 08:05 -5,2 C 88 % 1025,9 hPa 0,0 l/m 0,0 km/h (0 Bft) 5 min 0,000 mm 0,0 UV-I 144 W/m -6,9 C -5,2 C 0,0 km/h (0 Bft) 100 %
01.04.2020 08:00 -5,3 C 88 % 1025,9 hPa 0,0 l/m 0,0 km/h (0 Bft) 5 min 0,025 mm 0,0 UV-I 120 W/m -7,0 C -5,3 C 0,0 km/h (0 Bft) 100 %
01.04.2020 07:55 -5,5 C 88 % 1026,0 hPa 0,0 l/m 0,0 km/h (0 Bft) 5 min 0,000 mm 0,0 UV-I 109 W/m -7,2 C -5,5 C 0,0 km/h (0 Bft) 100 %
01.04.2020 07:50 -5,7 C 89 % 1025,9 hPa 0,0 l/m 0,0 km/h (0 Bft) 0 min 0,000 mm 0,0 UV-I 93 W/m -7,2 C -5,7 C 0,0 km/h (0 Bft) 100 %
01.04.2020 07:45 -6,1 C 89 % 1025,9 hPa 0,0 l/m 0,0 km/h (0 Bft) 0 min 0,000 mm 0,0 UV-I 77 W/m -7,6 C -6,1 C 0,0 km/h (0 Bft) 100 %
01.04.2020 07:40 -6,2 C 89 % 1025,9 hPa 0,0 l/m 0,0 km/h (0 Bft) 0 min 0,000 mm 0,0 UV-I 63 W/m -7,7 C -6,2 C 0,0 km/h (0 Bft) 100 %
01.04.2020 07:35 -6,3 C 89 % 1025,9 hPa 0,0 l/m 0,0 km/h (0 Bft) 0 min 0,000 mm 0,0 UV-I 51 W/m -7,8 C -6,3 C 0,0 km/h (0 Bft) 100 %
01.04.2020 07:30 -6,4 C 89 % 1025,9 hPa 0,0 l/m 0,0 km/h (0 Bft) 0 min 0,000 mm 0,0 UV-I 40 W/m -7,9 C -6,4 C 0,0 km/h (0 Bft) 100 %
01.04.2020 07:25 -6,5 C 89 % 1025,9 hPa 0,0 l/m 0,0 km/h (0 Bft) 0 min 0,000 mm 0,0 UV-I 32 W/m -8,0 C -6,5 C 0,0 km/h (0 Bft) 100 %
01.04.2020 07:20 -6,6 C 89 % 1025,8 hPa 0,0 l/m 0,0 km/h (0 Bft) 0 min 0,000 mm 0,0 UV-I 23 W/m -8,1 C -6,6 C 0,0 km/h (0 Bft) 98 %
01.04.2020 07:15 -6,8 C 89 % 1025,9 hPa 0,0 l/m 0,0 km/h (0 Bft) 0 min 0,000 mm 0,0 UV-I 16 W/m -8,3 C -6,8 C 0,0 km/h (0 Bft) 100 %
01.04.2020 07:10 -6,9 C 89 % 1025,9 hPa 0,0 l/m 0,0 km/h (0 Bft) 0 min 0,000 mm 0,0 UV-I 12 W/m -8,4 C -6,9 C 0,0 km/h (0 Bft) 99 %
01.04.2020 07:05 -6,8 C 88 % 1025,8 hPa 0,0 l/m 0,0 km/h (0 Bft) 0 min 0,000 mm 0,0 UV-I 11 W/m -8,4 C -6,8 C 0,0 km/h (0 Bft) 100 %
01.04.2020 07:00 -6,8 C 89 % 1025,8 hPa 0,0 l/m 0,0 km/h (0 Bft) 0 min 0,000 mm 0,0 UV-I 7 W/m -8,3 C -6,8 C 0,0 km/h (0 Bft) 82 %
01.04.2020 06:55 -6,8 C 89 % 1025,9 hPa 0,0 l/m 0,0 km/h (0 Bft) 0 min 0,000 mm 0,0 UV-I 5 W/m -8,3 C -6,8 C 0,0 km/h (0 Bft) 100 %
01.04.2020 06:50 -6,7 C 89 % 1026,0 hPa 0,0 l/m 0,0 km/h (0 Bft) 0 min 0,000 mm 0,0 UV-I 0 W/m -8,2 C -6,7 C 0,0 km/h (0 Bft) 100 %
01.04.2020 06:45 -6,8 C 88 % 1026,0 hPa 0,0 l/m 0,0 km/h (0 Bft) 0 min 0,000 mm 0,0 UV-I 0 W/m -8,4 C -6,8 C 0,0 km/h (0 Bft) 100 %
01.04.2020 06:40 -6,8 C 88 % 1026,0 hPa 0,0 l/m 0,0 km/h (0 Bft) 0 min 0,000 mm 0,0 UV-I 0 W/m -8,4 C -6,8 C 0,0 km/h (0 Bft) 100 %
01.04.2020 06:35 -6,6 C 88 % 1026,0 hPa 0,0 l/m 0,0 km/h (0 Bft) 0 min 0,000 mm 0,0 UV-I 0 W/m -8,2 C -6,6 C 0,0 km/h (0 Bft) 100 %
01.04.2020 06:30 -6,3 C 88 % 1025,9 hPa 0,0 l/m 0,0 km/h (0 Bft) 0 min 0,000 mm 0,0 UV-I 0 W/m -8,0 C -6,3 C 0,0 km/h (0 Bft) 98 %
01.04.2020 06:25 -6,3 C 89 % 1026,0 hPa 0,0 l/m 0,0 km/h (0 Bft) 0 min 0,000 mm 0,0 UV-I 0 W/m -7,8 C -6,3 C 0,0 km/h (0 Bft) 100 %
01.04.2020 06:20 -6,4 C 89 % 1026,0 hPa 0,0 l/m 0,0 km/h (0 Bft) 0 min 0,000 mm 0,0 UV-I 0 W/m -7,9 C -6,4 C 1,6 km/h (1 Bft) 100 %
01.04.2020 06:15 -6,4 C 89 % 1026,1 hPa 0,0 l/m 0,0 km/h (0 Bft) 0 min 0,000 mm 0,0 UV-I 0 W/m -7,9 C -6,4 C 0,0 km/h (0 Bft) 100 %
01.04.2020 06:10 -6,5 C 89 % 1026,0 hPa 0,0 l/m 0,0 km/h (0 Bft) 0 min 0,000 mm 0,0 UV-I 0 W/m -8,0 C -6,5 C 0,0 km/h (0 Bft) 89 %
01.04.2020 06:05 -6,6 C 89 % 1026,1 hPa 0,0 l/m 0,0 km/h (0 Bft) 0 min 0,000 mm 0,0 UV-I 0 W/m -8,1 C -6,6 C 0,0 km/h (0 Bft) 94 %
01.04.2020 06:00 -6,7 C 89 % 1026,0 hPa 0,0 l/m 0,0 km/h (0 Bft) 0 min 0,000 mm 0,0 UV-I 0 W/m -8,2 C -6,7 C 0,0 km/h (0 Bft) 100 %
01.04.2020 05:55 -6,7 C 88 % 1026,2 hPa 0,0 l/m 0,0 km/h (0 Bft) 0 min 0,000 mm 0,0 UV-I 0 W/m -8,3 C -6,7 C 0,0 km/h (0 Bft) 99 %
01.04.2020 05:50 -6,7 C 88 % 1026,2 hPa 0,0 l/m 0,0 km/h (0 Bft) 0 min 0,000 mm 0,0 UV-I 0 W/m -8,3 C -6,7 C 0,0 km/h (0 Bft) 100 %
01.04.2020 05:45 -6,4 C 88 % 1026,3 hPa 0,0 l/m 0,0 km/h (0 Bft) 0 min 0,000 mm 0,0 UV-I 0 W/m -8,1 C -6,4 C 0,0 km/h (0 Bft) 99 %
01.04.2020 05:40 -6,3 C 89 % 1026,2 hPa 0,0 l/m 0,0 km/h (0 Bft) 0 min 0,000 mm 0,0 UV-I 0 W/m -7,8 C -6,3 C 0,0 km/h (0 Bft) 100 %
01.04.2020 05:35 -6,3 C 88 % 1026,3 hPa 0,0 l/m 0,0 km/h (0 Bft) 0 min 0,000 mm 0,0 UV-I 0 W/m -8,0 C -6,3 C 0,0 km/h (0 Bft) 99 %
01.04.2020 05:30 -6,4 C 88 % 1026,4 hPa 0,0 l/m 0,0 km/h (0 Bft) 0 min 0,000 mm 0,0 UV-I 0 W/m -8,1 C -6,4 C 0,0 km/h (0 Bft) 99 %
01.04.2020 05:25 -6,4 C 88 % 1026,4 hPa 0,0 l/m 0,0 km/h (0 Bft) 0 min 0,000 mm 0,0 UV-I 0 W/m -8,1 C -6,4 C 0,0 km/h (0 Bft) 98 %
01.04.2020 05:20 -6,3 C 88 % 1026,5 hPa 0,0 l/m 0,1 km/h (0 Bft) 0 min 0,000 mm 0,0 UV-I 0 W/m -8,0 C -6,3 C 3,2 km/h (1 Bft) 98 %
01.04.2020 05:15 -6,2 C 88 % 1026,4 hPa 0,0 l/m 0,0 km/h (0 Bft) 0 min 0,000 mm 0,0 UV-I 0 W/m -7,9 C -6,2 C 0,0 km/h (0 Bft) 100 %
01.04.2020 05:10 -6,2 C 88 % 1026,5 hPa 0,0 l/m 0,0 km/h (0 Bft) 0 min 0,000 mm 0,0 UV-I 0 W/m -7,9 C -6,2 C 0,0 km/h (0 Bft) 99 %
01.04.2020 05:05 -6,3 C 87 % 1026,5 hPa 0,0 l/m 0,0 km/h (0 Bft) 0 min 0,000 mm 0,0 UV-I 0 W/m -8,1 C -6,3 C 0,0 km/h (0 Bft) 100 %
01.04.2020 05:00 -6,2 C 87 % 1026,6 hPa 0,0 l/m 0,0 km/h (0 Bft) 0 min 0,000 mm 0,0 UV-I 0 W/m -8,0 C -6,2 C 0,0 km/h (0 Bft) 100 %
01.04.2020 04:55 -6,1 C 87 % 1026,7 hPa 0,0 l/m 0,0 km/h (0 Bft) 0 min 0,000 mm 0,0 UV-I 0 W/m -7,9 C -6,1 C 0,0 km/h (0 Bft) 100 %
01.04.2020 04:50 -6,1 C 87 % 1026,7 hPa 0,0 l/m 0,0 km/h (0 Bft) 0 min 0,000 mm 0,0 UV-I 0 W/m -7,9 C -6,1 C 0,0 km/h (0 Bft) 100 %
01.04.2020 04:45 -5,9 C 87 % 1026,8 hPa 0,0 l/m 0,0 km/h (0 Bft) 0 min 0,000 mm 0,0 UV-I 0 W/m -7,7 C -5,9 C 0,0 km/h (0 Bft) 100 %
01.04.2020 04:40 -5,9 C 88 % 1026,8 hPa 0,0 l/m 0,0 km/h (0 Bft) 0 min 0,000 mm 0,0 UV-I 0 W/m -7,6 C -5,9 C 0,0 km/h (0 Bft) 100 %
01.04.2020 04:35 -6,1 C 87 % 1026,9 hPa 0,0 l/m 0,0 km/h (0 Bft) 0 min 0,000 mm 0,0 UV-I 0 W/m -7,9 C -6,1 C 0,0 km/h (0 Bft) 100 %
01.04.2020 04:30 -5,9 C 87 % 1026,9 hPa 0,0 l/m 0,0 km/h (0 Bft) 0 min 0,000 mm 0,0 UV-I 0 W/m -7,7 C -5,9 C 0,0 km/h (0 Bft) 99 %
01.04.2020 04:25 -5,8 C 87 % 1027,0 hPa 0,0 l/m 0,0 km/h (0 Bft) 0 min 0,000 mm 0,0 UV-I 0 W/m -7,6 C -5,8 C 0,0 km/h (0 Bft) 100 %
01.04.2020 04:20 -5,8 C 86 % 1027,0 hPa 0,0 l/m 0,0 km/h (0 Bft) 0 min 0,000 mm 0,0 UV-I 0 W/m -7,8 C -5,8 C 0,0 km/h (0 Bft) 82 %
01.04.2020 04:15 -5,7 C 86 % 1027,1 hPa 0,0 l/m 0,0 km/h (0 Bft) 0 min 0,000 mm 0,0 UV-I 0 W/m -7,7 C -5,7 C 0,0 km/h (0 Bft) 99 %
01.04.2020 04:10 -5,6 C 86 % 1027,2 hPa 0,0 l/m 0,0 km/h (0 Bft) 0 min 0,000 mm 0,0 UV-I 0 W/m -7,6 C -5,6 C 0,0 km/h (0 Bft) 99 %
01.04.2020 04:05 -5,6 C 86 % 1027,3 hPa 0,0 l/m 0,0 km/h (0 Bft) 0 min 0,000 mm 0,0 UV-I 0 W/m -7,6 C -5,6 C 0,0 km/h (0 Bft) 100 %
01.04.2020 04:00 -5,6 C 86 % 1027,3 hPa 0,0 l/m 0,0 km/h (0 Bft) 0 min 0,000 mm 0,0 UV-I 0 W/m -7,6 C -5,6 C 0,0 km/h (0 Bft) 100 %
01.04.2020 03:55 -5,4 C 85 % 1027,3 hPa 0,0 l/m 0,0 km/h (0 Bft) 0 min 0,000 mm 0,0 UV-I 0 W/m -7,5 C -5,4 C 0,0 km/h (0 Bft) 99 %
01.04.2020 03:50 -5,2 C 86 % 1027,3 hPa 0,0 l/m 0,0 km/h (0 Bft) 0 min 0,000 mm 0,0 UV-I 0 W/m -7,2 C -5,2 C 0,0 km/h (0 Bft) 100 %
01.04.2020 03:45 -5,3 C 86 % 1027,4 hPa 0,0 l/m 0,0 km/h (0 Bft) 0 min 0,000 mm 0,0 UV-I 0 W/m -7,3 C -5,3 C 0,0 km/h (0 Bft) 100 %
01.04.2020 03:40 -5,3 C 86 % 1027,4 hPa 0,0 l/m 0,0 km/h (0 Bft) 0 min 0,000 mm 0,0 UV-I 0 W/m -7,3 C -5,3 C 0,0 km/h (0 Bft) 100 %
01.04.2020 03:35 -5,3 C 85 % 1027,5 hPa 0,0 l/m 0,0 km/h (0 Bft) 0 min 0,000 mm 0,0 UV-I 0 W/m -7,4 C -5,3 C 0,0 km/h (0 Bft) 99 %
01.04.2020 03:30 -5,1 C 85 % 1027,5 hPa 0,0 l/m 0,0 km/h (0 Bft) 0 min 0,000 mm 0,0 UV-I 0 W/m -7,2 C -5,1 C 0,0 km/h (0 Bft) 99 %
01.04.2020 03:25 -5,0 C 86 % 1027,5 hPa 0,0 l/m 0,0 km/h (0 Bft) 0 min 0,000 mm 0,0 UV-I 0 W/m -7,0 C -5,0 C 0,0 km/h (0 Bft) 99 %
01.04.2020 03:20 -5,0 C 86 % 1027,5 hPa 0,0 l/m 0,0 km/h (0 Bft) 0 min 0,000 mm 0,0 UV-I 0 W/m -7,0 C -5,0 C 0,0 km/h (0 Bft) 83 %
01.04.2020 03:15 -5,1 C 86 % 1027,6 hPa 0,0 l/m 0,0 km/h (0 Bft) 0 min 0,000 mm 0,0 UV-I 0 W/m -7,1 C -5,1 C 0,0 km/h (0 Bft) 100 %
01.04.2020 03:10 -5,1 C 86 % 1027,6 hPa 0,0 l/m 0,0 km/h (0 Bft) 0 min 0,000 mm 0,0 UV-I 0 W/m -7,1 C -5,1 C 0,0 km/h (0 Bft) 100 %
01.04.2020 03:05 -5,1 C 86 % 1027,7 hPa 0,0 l/m 0,0 km/h (0 Bft) 0 min 0,000 mm 0,0 UV-I 0 W/m -7,1 C -5,1 C 0,0 km/h (0 Bft) 99 %
01.04.2020 03:00 -5,1 C 86 % 1027,7 hPa 0,0 l/m 0,0 km/h (0 Bft) 0 min 0,000 mm 0,0 UV-I 0 W/m -7,1 C -5,1 C 0,0 km/h (0 Bft) 98 %
01.04.2020 02:55 -4,9 C 85 % 1027,8 hPa 0,0 l/m 0,0 km/h (0 Bft) 0 min 0,000 mm 0,0 UV-I 0 W/m -7,0 C -4,9 C 0,0 km/h (0 Bft) 100 %
01.04.2020 02:50 -4,8 C 85 % 1027,8 hPa 0,0 l/m 0,0 km/h (0 Bft) 0 min 0,000 mm 0,0 UV-I 0 W/m -6,9 C -4,8 C 0,0 km/h (0 Bft) 99 %
01.04.2020 02:45 -4,7 C 86 % 1027,9 hPa 0,0 l/m 0,0 km/h (0 Bft) 0 min 0,000 mm 0,0 UV-I 0 W/m -6,7 C -4,7 C 0,0 km/h (0 Bft) 99 %
01.04.2020 02:40 -4,7 C 86 % 1028,0 hPa 0,0 l/m 0,0 km/h (0 Bft) 0 min 0,000 mm 0,0 UV-I 0 W/m -6,7 C -4,7 C 0,0 km/h (0 Bft) 100 %
01.04.2020 02:35 -4,8 C 87 % 1027,9 hPa 0,0 l/m 0,0 km/h (0 Bft) 0 min 0,000 mm 0,0 UV-I 0 W/m -6,6 C -4,8 C 0,0 km/h (0 Bft) 100 %
01.04.2020 02:30 -4,9 C 87 % 1028,0 hPa 0,0 l/m 0,0 km/h (0 Bft) 0 min 0,000 mm 0,0 UV-I 0 W/m -6,7 C -4,9 C 0,0 km/h (0 Bft) 100 %
01.04.2020 02:25 -5,1 C 86 % 1028,0 hPa 0,0 l/m 0,0 km/h (0 Bft) 0 min 0,000 mm 0,0 UV-I 0 W/m -7,1 C -5,1 C 0,0 km/h (0 Bft) 99 %
01.04.2020 02:20 -4,9 C 85 % 1028,1 hPa 0,0 l/m 0,0 km/h (0 Bft) 0 min 0,000 mm 0,0 UV-I 0 W/m -7,0 C -4,9 C 0,0 km/h (0 Bft) 99 %
01.04.2020 02:15 -4,8 C 85 % 1028,2 hPa 0,0 l/m 0,0 km/h (0 Bft) 0 min 0,000 mm 0,0 UV-I 0 W/m -6,9 C -4,8 C 0,0 km/h (0 Bft) 100 %
01.04.2020 02:10 -4,7 C 86 % 1028,2 hPa 0,0 l/m 0,0 km/h (0 Bft) 0 min 0,000 mm 0,0 UV-I 0 W/m -6,7 C -4,7 C 0,0 km/h (0 Bft) 100 %
01.04.2020 02:05 -4,7 C 86 % 1028,2 hPa 0,0 l/m 0,0 km/h (0 Bft) 0 min 0,000 mm 0,0 UV-I 0 W/m -6,7 C -4,7 C 0,0 km/h (0 Bft) 100 %
01.04.2020 02:00 -4,7 C 86 % 1028,3 hPa 0,0 l/m 0,0 km/h (0 Bft) 0 min 0,000 mm 0,0 UV-I 0 W/m -6,7 C -4,7 C 0,0 km/h (0 Bft) 99 %
01.04.2020 01:55 -4,7 C 85 % 1028,3 hPa 0,0 l/m 0,0 km/h (0 Bft) 0 min 0,000 mm 0,0 UV-I 0 W/m -6,8 C -4,7 C 0,0 km/h (0 Bft) 99 %
01.04.2020 01:50 -4,6 C 85 % 1028,3 hPa 0,0 l/m 0,0 km/h (0 Bft) 0 min 0,000 mm 0,0 UV-I 0 W/m -6,7 C -4,6 C 0,0 km/h (0 Bft) 98 %
01.04.2020 01:45 -4,4 C 85 % 1028,3 hPa 0,0 l/m 0,0 km/h (0 Bft) 0 min 0,000 mm 0,0 UV-I 0 W/m -6,5 C -4,4 C 0,0 km/h (0 Bft) 100 %
01.04.2020 01:40 -4,2 C 86 % 1028,3 hPa 0,0 l/m 0,0 km/h (0 Bft) 0 min 0,000 mm 0,0 UV-I 0 W/m -6,2 C -4,2 C 0,0 km/h (0 Bft) 99 %
01.04.2020 01:35 -4,3 C 86 % 1028,4 hPa 0,0 l/m 0,0 km/h (0 Bft) 0 min 0,000 mm 0,0 UV-I 0 W/m -6,3 C -4,3 C 0,0 km/h (0 Bft) 100 %
01.04.2020 01:30 -4,4 C 86 % 1028,4 hPa 0,0 l/m 0,0 km/h (0 Bft) 0 min 0,000 mm 0,0 UV-I 0 W/m -6,4 C -4,4 C 0,0 km/h (0 Bft) 97 %
01.04.2020 01:25 -4,4 C 86 % 1028,5 hPa 0,0 l/m 0,0 km/h (0 Bft) 0 min 0,000 mm 0,0 UV-I 0 W/m -6,4 C -4,4 C 0,0 km/h (0 Bft) 100 %
01.04.2020 01:20 -4,5 C 86 % 1028,6 hPa 0,0 l/m 0,0 km/h (0 Bft) 0 min 0,000 mm 0,0 UV-I 0 W/m -6,5 C -4,5 C 0,0 km/h (0 Bft) 99 %
01.04.2020 01:15 -4,4 C 86 % 1028,7 hPa 0,0 l/m 0,0 km/h (0 Bft) 0 min 0,000 mm 0,0 UV-I 0 W/m -6,4 C -4,4 C 0,0 km/h (0 Bft) 83 %
01.04.2020 01:10 -4,3 C 86 % 1028,7 hPa 0,0 l/m 0,0 km/h (0 Bft) 0 min 0,000 mm 0,0 UV-I 0 W/m -6,3 C -4,3 C 0,0 km/h (0 Bft) 100 %
01.04.2020 01:05 -4,3 C 85 % 1028,8 hPa 0,0 l/m 0,0 km/h (0 Bft) 0 min 0,000 mm 0,0 UV-I 0 W/m -6,4 C -4,3 C 0,0 km/h (0 Bft) 100 %
01.04.2020 01:00 -4,3 C 85 % 1028,9 hPa 0,0 l/m 0,0 km/h (0 Bft) 0 min 0,000 mm 0,0 UV-I 0 W/m -6,4 C -4,3 C 0,0 km/h (0 Bft) 100 %
01.04.2020 00:55 -4,1 C 84 % 1028,9 hPa 0,0 l/m 0,0 km/h (0 Bft) 0 min 0,000 mm 0,0 UV-I 0 W/m -6,4 C -4,1 C 0,0 km/h (0 Bft) 100 %
01.04.2020 00:50 -3,9 C 84 % 1029,0 hPa 0,0 l/m 0,0 km/h (0 Bft) 0 min 0,000 mm 0,0 UV-I 0 W/m -6,2 C -3,9 C 0,0 km/h (0 Bft) 99 %
01.04.2020 00:45 -4,0 C 84 % 1029,0 hPa 0,0 l/m 0,0 km/h (0 Bft) 0 min 0,000 mm 0,0 UV-I 0 W/m -6,3 C -4,0 C 0,0 km/h (0 Bft) 100 %
01.04.2020 00:40 -3,9 C 82 % 1029,1 hPa 0,0 l/m 0,0 km/h (0 Bft) 0 min 0,000 mm 0,0 UV-I 0 W/m -6,5 C -3,9 C 0,0 km/h (0 Bft) 99 %
01.04.2020 00:35 -3,6 C 82 % 1029,1 hPa 0,0 l/m 0,0 km/h (0 Bft) 0 min 0,000 mm 0,0 UV-I 0 W/m -6,2 C -3,6 C 0,0 km/h (0 Bft) 100 %
01.04.2020 00:30 -3,5 C 82 % 1029,1 hPa 0,0 l/m 0,0 km/h (0 Bft) 0 min 0,000 mm 0,0 UV-I 0 W/m -6,1 C -3,5 C 0,0 km/h (0 Bft) 99 %
01.04.2020 00:25 -3,4 C 82 % 1029,2 hPa 0,0 l/m 0,0 km/h (0 Bft) 0 min 0,000 mm 0,0 UV-I 0 W/m -6,0 C -3,4 C 0,0 km/h (0 Bft) 100 %
01.04.2020 00:20 -3,4 C 82 % 1029,2 hPa 0,0 l/m 0,0 km/h (0 Bft) 0 min 0,000 mm 0,0 UV-I 0 W/m -6,0 C -3,4 C 0,0 km/h (0 Bft) 100 %
01.04.2020 00:15 -3,4 C 83 % 1029,3 hPa 0,0 l/m 0,0 km/h (0 Bft) 0 min 0,000 mm 0,0 UV-I 0 W/m -5,9 C -3,4 C 0,0 km/h (0 Bft) 100 %
01.04.2020 00:10 -3,6 C 83 % 1029,2 hPa 0,0 l/m 0,0 km/h (0 Bft) 0 min 0,000 mm 0,0 UV-I 0 W/m -6,1 C -3,6 C 0,0 km/h (0 Bft) 100 %
01.04.2020 00:05 -3,7 C 83 % 1029,4 hPa 0,0 l/m 0,0 km/h (0 Bft) 0 min 0,000 mm 0,0 UV-I 0 W/m -6,2 C -3,7 C 0,0 km/h (0 Bft) 72 %
01.04.2020 00:00 -3,6 C 82 % 1029,4 hPa 0,0 l/m 0,0 km/h (0 Bft) 0 min 0,000 mm 0,0 UV-I 0 W/m -6,2 C -3,6 C 0,0 km/h (0 Bft) 82 %
31.03.2020 23:55 -3,3 C 82 % 1029,4 hPa 0,0 l/m 0,0 km/h (0 Bft) 0 min 0,000 mm 0,0 UV-I 0 W/m -5,9 C -3,3 C 1,6 km/h (1 Bft) 100 %
31.03.2020 23:50 -3,1 C 82 % 1029,4 hPa 0,0 l/m 0,0 km/h (0 Bft) 0 min 0,000 mm 0,0 UV-I 0 W/m -5,7 C -3,1 C 0,0 km/h (0 Bft) 100 %
31.03.2020 23:45 -3,1 C 82 % 1029,4 hPa 0,0 l/m 0,0 km/h (0 Bft) 0 min 0,000 mm 0,0 UV-I 0 W/m -5,7 C -3,1 C 0,0 km/h (0 Bft) 99 %
31.03.2020 23:40 -3,1 C 82 % 1029,5 hPa 0,0 l/m 0,0 km/h (0 Bft) 0 min 0,000 mm 0,0 UV-I 0 W/m -5,7 C -3,1 C 0,0 km/h (0 Bft) 99 %
31.03.2020 23:35 -2,9 C 82 % 1029,5 hPa 0,0 l/m 0,0 km/h (0 Bft) 0 min 0,000 mm 0,0 UV-I 0 W/m -5,5 C -2,9 C 0,0 km/h (0 Bft) 100 %
31.03.2020 23:30 -2,9 C 81 % 1029,5 hPa 0,0 l/m 0,0 km/h (0 Bft) 0 min 0,000 mm 0,0 UV-I 0 W/m -5,7 C -2,9 C 0,0 km/h (0 Bft) 99 %
31.03.2020 23:25 -3,0 C 81 % 1029,5 hPa 0,0 l/m 0,0 km/h (0 Bft) 0 min 0,000 mm 0,0 UV-I 0 W/m -5,8 C -3,0 C 0,0 km/h (0 Bft) 100 %
31.03.2020 23:20 -2,9 C 80 % 1029,5 hPa 0,0 l/m 0,0 km/h (0 Bft) 0 min 0,000 mm 0,0 UV-I 0 W/m -5,9 C -2,9 C 0,0 km/h (0 Bft) 97 %
31.03.2020 23:15 -2,7 C 80 % 1029,6 hPa 0,0 l/m 0,0 km/h (0 Bft) 0 min 0,000 mm 0,0 UV-I 0 W/m -5,7 C -2,7 C 0,0 km/h (0 Bft) 99 %
31.03.2020 23:10 -2,3 C 79 % 1029,6 hPa 0,0 l/m 0,0 km/h (0 Bft) 0 min 0,000 mm 0,0 UV-I 0 W/m -5,4 C -2,3 C 0,0 km/h (0 Bft) 100 %
31.03.2020 23:05 -2,3 C 79 % 1029,6 hPa 0,0 l/m 0,0 km/h (0 Bft) 0 min 0,000 mm 0,0 UV-I 0 W/m -5,4 C -2,3 C 0,0 km/h (0 Bft) 99 %
31.03.2020 23:00 -2,2 C 80 % 1029,6 hPa 0,0 l/m 0,0 km/h (0 Bft) 0 min 0,000 mm 0,0 UV-I 0 W/m -5,2 C -2,2 C 0,0 km/h (0 Bft) 99 %
31.03.2020 22:55 -2,4 C 80 % 1029,6 hPa 0,0 l/m 0,0 km/h (0 Bft) 0 min 0,000 mm 0,0 UV-I 0 W/m -5,4 C -2,4 C 0,0 km/h (0 Bft) 100 %
31.03.2020 22:50 -2,3 C 80 % 1029,5 hPa 0,0 l/m 0,0 km/h (0 Bft) 0 min 0,000 mm 0,0 UV-I 0 W/m -5,3 C -2,3 C 0,0 km/h (0 Bft) 99 %
31.03.2020 22:45 -2,2 C 78 % 1029,7 hPa 0,0 l/m 0,0 km/h (0 Bft) 0 min 0,000 mm 0,0 UV-I 0 W/m -5,5 C -2,2 C 0,0 km/h (0 Bft) 99 %
31.03.2020 22:40 -2,0 C 77 % 1029,6 hPa 0,0 l/m 0,0 km/h (0 Bft) 0 min 0,000 mm 0,0 UV-I 0 W/m -5,5 C -2,0 C 0,0 km/h (0 Bft) 100 %
31.03.2020 22:35 -1,7 C 75 % 1029,7 hPa 0,0 l/m 0,0 km/h (0 Bft) 0 min 0,000 mm 0,0 UV-I 0 W/m -5,5 C -1,7 C 0,0 km/h (0 Bft) 99 %
31.03.2020 22:30 -1,4 C 74 % 1029,7 hPa 0,0 l/m 0,0 km/h (0 Bft) 0 min 0,000 mm 0,0 UV-I 0 W/m -5,4 C -1,4 C 0,0 km/h (0 Bft) 100 %
31.03.2020 22:25 -1,2 C 74 % 1029,8 hPa 0,0 l/m 0,0 km/h (0 Bft) 0 min 0,000 mm 0,0 UV-I 0 W/m -5,2 C -1,2 C 0,0 km/h (0 Bft) 100 %
31.03.2020 22:20 -1,3 C 74 % 1029,7 hPa 0,0 l/m 0,0 km/h (0 Bft) 0 min 0,000 mm 0,0 UV-I 0 W/m -5,3 C -1,3 C 0,0 km/h (0 Bft) 100 %
31.03.2020 22:15 -1,4 C 74 % 1029,6 hPa 0,0 l/m 0,0 km/h (0 Bft) 0 min 0,000 mm 0,0 UV-I 0 W/m -5,4 C -1,4 C 1,6 km/h (1 Bft) 100 %
31.03.2020 22:10 -1,5 C 73 % 1029,7 hPa 0,0 l/m 0,0 km/h (0 Bft) 0 min 0,000 mm 0,0 UV-I 0 W/m -5,7 C -1,5 C 0,0 km/h (0 Bft) 100 %
31.03.2020 22:05 -1,6 C 73 % 1029,8 hPa 0,0 l/m 0,0 km/h (0 Bft) 0 min 0,000 mm 0,0 UV-I 0 W/m -5,8 C -1,6 C 0,0 km/h (0 Bft) 99 %
31.03.2020 22:00 -1,4 C 72 % 1029,8 hPa 0,0 l/m 0,0 km/h (0 Bft) 0 min 0,000 mm 0,0 UV-I 0 W/m -5,8 C -1,4 C 0,0 km/h (0 Bft) 100 %
31.03.2020 21:55 -1,2 C 73 % 1029,8 hPa 0,0 l/m 0,0 km/h (0 Bft) 0 min 0,000 mm 0,0 UV-I 0 W/m -5,4 C -1,2 C 0,0 km/h (0 Bft) 100 %
31.03.2020 21:50 -1,2 C 73 % 1029,8 hPa 0,0 l/m 0,0 km/h (0 Bft) 0 min 0,000 mm 0,0 UV-I 0 W/m -5,4 C -1,2 C 0,0 km/h (0 Bft) 100 %
31.03.2020 21:45 -1,1 C 74 % 1029,9 hPa 0,0 l/m 0,0 km/h (0 Bft) 0 min 0,000 mm 0,0 UV-I 0 W/m -5,1 C -1,1 C 0,0 km/h (0 Bft) 100 %
31.03.2020 21:40 -1,1 C 73 % 1029,9 hPa 0,0 l/m 0,0 km/h (0 Bft) 0 min 0,000 mm 0,0 UV-I 0 W/m -5,3 C -1,1 C 0,0 km/h (0 Bft) 100 %
31.03.2020 21:35 -1,1 C 73 % 1029,9 hPa 0,0 l/m 0,0 km/h (0 Bft) 0 min 0,000 mm 0,0 UV-I 0 W/m -5,3 C -1,1 C 0,0 km/h (0 Bft) 100 %
31.03.2020 21:30 -0,8 C 72 % 1029,9 hPa 0,0 l/m 0,0 km/h (0 Bft) 0 min 0,000 mm 0,0 UV-I 0 W/m -5,2 C -0,8 C 0,0 km/h (0 Bft) 100 %
31.03.2020 21:25 -0,7 C 71 % 1030,0 hPa 0,0 l/m 0,0 km/h (0 Bft) 0 min 0,000 mm 0,0 UV-I 0 W/m -5,3 C -0,7 C 0,0 km/h (0 Bft) 100 %
31.03.2020 21:20 -0,4 C 72 % 1030,0 hPa 0,0 l/m 0,0 km/h (0 Bft) 0 min 0,000 mm 0,0 UV-I 0 W/m -4,8 C -0,4 C 0,0 km/h (0 Bft) 100 %
31.03.2020 21:15 -0,6 C 71 % 1030,0 hPa 0,0 l/m 0,0 km/h (0 Bft) 0 min 0,000 mm 0,0 UV-I 0 W/m -5,2 C -0,6 C 0,0 km/h (0 Bft) 100 %
31.03.2020 21:10 -0,3 C 70 % 1030,0 hPa 0,0 l/m 0,0 km/h (0 Bft) 0 min 0,000 mm 0,0 UV-I 0 W/m -5,1 C -0,3 C 0,0 km/h (0 Bft) 100 %
31.03.2020 21:05 -0,2 C 70 % 1030,0 hPa 0,0 l/m 0,0 km/h (0 Bft) 0 min 0,000 mm 0,0 UV-I 0 W/m -5,0 C -0,2 C 0,0 km/h (0 Bft) 99 %
31.03.2020 21:00 -0,2 C 69 % 1030,1 hPa 0,0 l/m 0,0 km/h (0 Bft) 0 min 0,000 mm 0,0 UV-I 0 W/m -5,2 C -0,2 C 0,0 km/h (0 Bft) 99 %
31.03.2020 20:55 -0,4 C 69 % 1030,0 hPa 0,0 l/m 0,0 km/h (0 Bft) 0 min 0,000 mm 0,0 UV-I 0 W/m -5,4 C -0,4 C 0,0 km/h (0 Bft) 100 %
31.03.2020 20:50 -0,2 C 68 % 1030,0 hPa 0,0 l/m 1,3 km/h (1 Bft) 0 min 0,000 mm 0,0 UV-I 0 W/m -5,4 C -0,2 C 4,8 km/h (1 Bft) 100 %
31.03.2020 20:45 0,4 C 65 % 1030,0 hPa 0,0 l/m 0,4 km/h (0 Bft) 0 min 0,000 mm 0,0 UV-I 0 W/m -5,4 C 0,4 C 3,2 km/h (1 Bft) 99 %
31.03.2020 20:40 1,1 C 64 % 1030,1 hPa 0,0 l/m 0,0 km/h (0 Bft) 0 min 0,000 mm 0,0 UV-I 0 W/m -4,9 C 1,1 C 0,0 km/h (0 Bft) 99 %
31.03.2020 20:35 1,1 C 64 % 1030,1 hPa 0,0 l/m 0,0 km/h (0 Bft) 0 min 0,000 mm 0,0 UV-I 0 W/m -4,9 C 1,1 C 0,0 km/h (0 Bft) 100 %
31.03.2020 20:30 1,1 C 63 % 1030,1 hPa 0,0 l/m 0,0 km/h (0 Bft) 0 min 0,000 mm 0,0 UV-I 0 W/m -5,1 C 1,1 C 0,0 km/h (0 Bft) 100 %
31.03.2020 20:25 0,8 C 62 % 1030,1 hPa 0,0 l/m 0,0 km/h (0 Bft) 0 min 0,000 mm 0,0 UV-I 0 W/m -5,6 C 0,8 C 0,0 km/h (0 Bft) 100 %
31.03.2020 20:20 1,0 C 61 % 1030,1 hPa 0,0 l/m 0,0 km/h (0 Bft) 0 min 0,000 mm 0,0 UV-I 0 W/m -5,7 C 1,0 C 0,0 km/h (0 Bft) 100 %
31.03.2020 20:15 1,3 C 59 % 1030,1 hPa 0,0 l/m 0,0 km/h (0 Bft) 0 min 0,000 mm 0,0 UV-I 0 W/m -5,8 C 1,3 C 0,0 km/h (0 Bft) 99 %
31.03.2020 20:10 1,7 C 58 % 1030,1 hPa 0,0 l/m 0,0 km/h (0 Bft) 0 min 0,000 mm 0,0 UV-I 0 W/m -5,7 C 1,7 C 0,0 km/h (0 Bft) 99 %
31.03.2020 20:05 1,8 C 56 % 1029,9 hPa 0,0 l/m 0,0 km/h (0 Bft) 0 min 0,025 mm 0,0 UV-I 0 W/m -6,0 C 1,8 C 0,0 km/h (0 Bft) 100 %
31.03.2020 20:00 2,0 C 55 % 1030,0 hPa 0,0 l/m 0,2 km/h (0 Bft) 0 min 0,000 mm 0,0 UV-I 0 W/m -6,1 C 2,0 C 3,2 km/h (1 Bft) 100 %
31.03.2020 19:55 2,3 C 53 % 1030,0 hPa 0,0 l/m 0,0 km/h (0 Bft) 0 min 0,000 mm 0,0 UV-I 0 W/m -6,3 C 2,3 C 0,0 km/h (0 Bft) 100 %
31.03.2020 19:50 2,7 C 52 % 1029,9 hPa 0,0 l/m 0,0 km/h (0 Bft) 0 min 0,000 mm 0,0 UV-I 5 W/m -6,2 C 2,7 C 0,0 km/h (0 Bft) 100 %
31.03.2020 19:45 2,9 C 51 % 1030,0 hPa 0,0 l/m 0,5 km/h (0 Bft) 0 min 0,000 mm 0,0 UV-I 7 W/m -6,2 C 2,9 C 4,8 km/h (1 Bft) 100 %
31.03.2020 19:40 3,1 C 50 % 1030,0 hPa 0,0 l/m 0,5 km/h (0 Bft) 0 min 0,000 mm 0,0 UV-I 9 W/m -6,3 C 3,1 C 4,8 km/h (1 Bft) 100 %
31.03.2020 19:35 3,3 C 50 % 1030,0 hPa 0,0 l/m 2,8 km/h (1 Bft) 0 min 0,000 mm 0,0 UV-I 12 W/m -6,1 C 3,3 C 6,4 km/h (2 Bft) 100 %
31.03.2020 19:30 3,4 C 49 % 1030,0 hPa 0,0 l/m 1,4 km/h (1 Bft) 0 min 0,000 mm 0,0 UV-I 14 W/m -6,3 C 3,4 C 8,0 km/h (2 Bft) 100 %
31.03.2020 19:25 3,7 C 49 % 1030,1 hPa 0,0 l/m 0,4 km/h (0 Bft) 0 min 0,000 mm 0,0 UV-I 21 W/m -6,0 C 3,7 C 4,8 km/h (1 Bft) 100 %
31.03.2020 19:20 3,9 C 49 % 1030,0 hPa 0,0 l/m 0,8 km/h (0 Bft) 0 min 0,000 mm 0,0 UV-I 26 W/m -5,8 C 3,9 C 4,8 km/h (1 Bft) 100 %
31.03.2020 19:15 4,1 C 47 % 1030,0 hPa 0,0 l/m 1,5 km/h (1 Bft) 0 min 0,000 mm 0,0 UV-I 32 W/m -6,2 C 4,1 C 4,8 km/h (1 Bft) 100 %
31.03.2020 19:10 4,3 C 46 % 1030,0 hPa 0,0 l/m 2,5 km/h (1 Bft) 0 min 0,000 mm 0,0 UV-I 44 W/m -6,3 C 4,3 C 6,4 km/h (2 Bft) 100 %
31.03.2020 19:05 4,7 C 45 % 1030,0 hPa 0,0 l/m 3,1 km/h (1 Bft) 0 min 0,076 mm 0,0 UV-I 56 W/m -6,2 C 4,7 C 8,0 km/h (2 Bft) 100 %
31.03.2020 19:00 5,4 C 43 % 1030,1 hPa 0,0 l/m 2,4 km/h (1 Bft) 0 min 0,000 mm 0,0 UV-I 69 W/m -6,2 C 5,4 C 8,0 km/h (2 Bft) 98 %
31.03.2020 18:50 5,7 C 42 % 1030,0 hPa 0,0 l/m 2,0 km/h (1 Bft) 0 min 0,000 mm 0,0 UV-I 93 W/m -6,2 C 5,7 C 9,7 km/h (2 Bft) 99 %
31.03.2020 18:45 5,7 C 42 % 1030,0 hPa 0,0 l/m 4,3 km/h (1 Bft) 5 min 0,000 mm 0,0 UV-I 109 W/m -6,2 C 5,7 C 14,5 km/h (3 Bft) 100 %
31.03.2020 18:40 5,7 C 42 % 1030,0 hPa 0,0 l/m 2,5 km/h (1 Bft) 5 min 0,000 mm 0,0 UV-I 127 W/m -6,2 C 5,7 C 8,0 km/h (2 Bft) 100 %
31.03.2020 18:35 5,8 C 40 % 1030,0 hPa 0,0 l/m 1,1 km/h (1 Bft) 5 min 0,000 mm 0,0 UV-I 142 W/m -6,7 C 5,8 C 4,8 km/h (1 Bft) 100 %
31.03.2020 18:30 5,9 C 41 % 1030,0 hPa 0,0 l/m 1,6 km/h (1 Bft) 5 min 0,000 mm 0,0 UV-I 156 W/m -6,3 C 5,9 C 4,8 km/h (1 Bft) 98 %
31.03.2020 18:25 5,7 C 42 % 1030,0 hPa 0,0 l/m 3,8 km/h (1 Bft) 5 min 0,000 mm 0,0 UV-I 174 W/m -6,2 C 5,7 C 11,3 km/h (2 Bft) 100 %
31.03.2020 18:20 5,4 C 42 % 1030,1 hPa 0,0 l/m 3,5 km/h (1 Bft) 5 min 0,000 mm 0,0 UV-I 192 W/m -6,5 C 5,4 C 14,5 km/h (3 Bft) 100 %
31.03.2020 18:15 5,4 C 42 % 1030,1 hPa 0,0 l/m 3,7 km/h (1 Bft) 5 min 0,000 mm 0,0 UV-I 209 W/m -6,5 C 5,4 C 8,0 km/h (2 Bft) 99 %
31.03.2020 18:10 5,7 C 42 % 1030,1 hPa 0,0 l/m 5,1 km/h (1 Bft) 5 min 0,000 mm 0,0 UV-I 227 W/m -6,2 C 5,7 C 11,3 km/h (2 Bft) 99 %
31.03.2020 18:05 5,8 C 42 % 1030,1 hPa 0,0 l/m 5,3 km/h (1 Bft) 5 min 0,178 mm 0,0 UV-I 244 W/m -6,1 C 5,8 C 14,5 km/h (3 Bft) 100 %
31.03.2020 18:00 5,9 C 41 % 1030,1 hPa 0,0 l/m 6,4 km/h (2 Bft) 5 min 0,000 mm 0,0 UV-I 260 W/m -6,3 C 5,9 C 14,5 km/h (3 Bft) 100 %
_ Min-Zeit 07:05 14:45 17:00 - 19:50 - - - - 06:40 07:10 19:50 00:05
Minimum _ -6,9 C 33 % 1019,3 hPa - 0,0 km/h (0 Bft) - - - - -8,4 C -6,9 C 0,0 km/h (0 Bft) 72 %
_ Max-Zeit 14:55 05:40 18:00 18:00 16:50 18:00 14:00 13:05 13:15 16:20 14:55 16:50 18:00
Maximum _ 11,0 C 89 % 1030,1 hPa 0,0 l/m 9,1 km/h
N-NO (2 Bft)
5 min 0,305 mm 2,9 UV-I 707 W/m -3,8 C 11,0 C 17,7 km/h
NO (3 Bft)
100 %
Durchschnitt _ 1,0 C 64 % 1026,5 hPa #0,0 l/m 1,6 km/h (1 Bft) #9:20 h #2,108 mm 1,9 UV-I 456 W/m -6,0 C 1,0 C 4,4 km/h (1 Bft) 99 %